User: anonymous   Login
Location: Caltech
(34.1382°N, 118.1253°W)
Time: 19:39:25
(UTC-07:00)
Language:

Meteor 1-11 Rocket - Orbit

View from above orbital plane
View from above orbital plane
View from above satellite
View from above satellite

Ground track
Ground track

The orbit data is extracted from the following two-line orbital elements,

1 05918U 72022B   14304.10180674  .00000085  00000-0  43315-4 0  2890
2 05918 081.2369 174.5914 0059176 143.7605 326.3355 14.05727245183106
Epoch (UTC): 31 October 2014 02:26:36
Eccentricity: 0.0059176
inclination: 81.2369°
perigee height: 831 km
apogee height: 917 km
right ascension of ascending node: 174.5914°
argument of perigee: 143.7605°
revolutions per day: 14.05727245
mean anomaly at epoch: 326.3355°
orbit number at epoch: 18310

The dashed part of the orbit path shows where the satellite is in the earth's shadow,  

DLR